^^
Grace C. Lehan Memorial Weather Station Historical Data
 
Daily Summary for August 25, 2019 Units:  English    Metric   Both
Daily Weekly Monthly Yearly Custom
  Current: High: Low: Average:
Temperature: 71.7 °F 72.8 °F 60.5 °F 65.7 °F
Dew Point: 57.09 °F 59.63 °F 54.42 °F 57.1 °F
Humidity: 60% 88% 53% 75%
Wind Speed: 4mph 10mph 0mph 1.1mph
Wind Gust: 9mph 17mph - -
WindNNE - - ENE
Pressure: 30.25 in 30.29 in 30.25 in -
Precipitation: 0 in      
Historical Graphs
 
 
Tabular Data for August 25, 2019
Time Temperature Dew Point Pressure Wind Wind Speed Wind Gust Humidity Rainfall Rate (Hourly) solar
00:00 67 °F 57.3 °F 30.26 in ENE 1 mph 1 mph 71% 0 in 0.00 W/m2
00:05 66.9 °F 57.2 °F 30.26 in Calm   5 mph 71% 0 in 0.00 W/m2
00:10 66.8 °F 57.11 °F 30.26 in Calm   5 mph 71% 0 in 0.00 W/m2
00:15 66.7 °F 57.01 °F 30.27 in Calm   5 mph 71% 0 in 0.00 W/m2
00:20 66.6 °F 56.91 °F 30.27 in East 1 mph 5 mph 71% 0 in 0.00 W/m2
00:25 66.5 °F 56.82 °F 30.27 in East 2 mph 5 mph 71% 0 in 0.00 W/m2
00:30 66.5 °F 56.82 °F 30.26 in Calm   5 mph 71% 0 in 0.00 W/m2
00:35 66.4 °F 56.72 °F 30.27 in East 2 mph 3 mph 71% 0 in 0.00 W/m2
00:40 66.3 °F 56.63 °F 30.26 in Calm   3 mph 71% 0 in 0.00 W/m2
00:45 66.2 °F 56.53 °F 30.26 in East 1 mph 3 mph 71% 0 in 0.00 W/m2
00:50 66.2 °F 56.92 °F 30.26 in Calm   3 mph 72% 0 in 0.00 W/m2
00:55 66.1 °F 56.82 °F 30.26 in Calm   3 mph 72% 0 in 0.00 W/m2
01:00 66 °F 56.73 °F 30.26 in NE 1 mph 3 mph 72% 0 in 0.00 W/m2
01:05 65.9 °F 56.63 °F 30.26 in NE 1 mph 2 mph 72% 0 in 0.00 W/m2
01:10 65.8 °F 56.92 °F 30.26 in Calm   5 mph 73% 0 in 0.00 W/m2
01:15 65.7 °F 56.82 °F 30.26 in Calm   5 mph 73% 0 in 0.00 W/m2
01:20 65.6 °F 56.72 °F 30.26 in Calm   5 mph 73% 0 in 0.00 W/m2
01:25 65.5 °F 56.63 °F 30.26 in Calm   5 mph 73% 0 in 0.00 W/m2
01:30 65.3 °F 56.81 °F 30.26 in Calm   5 mph 74% 0 in 0.00 W/m2
01:35 65.2 °F 56.71 °F 30.26 in Calm   3 mph 74% 0 in 0.00 W/m2
01:40 65.1 °F 56.62 °F 30.26 in Calm   3 mph 74% 0 in 0.00 W/m2
01:45 65 °F 56.89 °F 30.26 in Calm   3 mph 75% 0 in 0.00 W/m2
01:50 64.9 °F 56.8 °F 30.26 in Calm   3 mph 75% 0 in 0.00 W/m2
01:55 64.7 °F 56.6 °F 30.26 in Calm   3 mph 75% 0 in 0.00 W/m2
02:00 64.6 °F 56.87 °F 30.26 in Calm   3 mph 76% 0 in 0.00 W/m2
02:05 64.5 °F 56.78 °F 30.25 in Calm     76% 0 in 0.00 W/m2
02:10 64.3 °F 56.58 °F 30.25 in Calm     76% 0 in 0.00 W/m2
02:15 64.1 °F 56.75 °F 30.25 in Calm     77% 0 in 0.00 W/m2
02:20 64 °F 56.65 °F 30.25 in Calm     77% 0 in 0.00 W/m2
02:25 63.8 °F 56.46 °F 30.25 in Calm     77% 0 in 0.00 W/m2
02:30 63.6 °F 56.62 °F 30.25 in Calm     78% 0 in 0.00 W/m2
02:35 63.5 °F 56.88 °F 30.25 in Calm     79% 0 in 0.00 W/m2
02:40 63.3 °F 56.68 °F 30.25 in Calm     79% 0 in 0.00 W/m2
02:45 63.1 °F 56.49 °F 30.25 in Calm     79% 0 in 0.00 W/m2
02:50 63 °F 56.74 °F 30.25 in Calm     80% 0 in 0.00 W/m2
02:55 62.8 °F 56.55 °F 30.25 in Calm     80% 0 in 0.00 W/m2
03:00 62.6 °F 56.35 °F 30.25 in Calm     80% 0 in 0.00 W/m2
03:05 62.5 °F 56.6 °F 30.25 in Calm     81% 0 in 0.00 W/m2
03:10 62.4 °F 56.5 °F 30.25 in Calm     81% 0 in 0.00 W/m2
03:15 62.2 °F 56.64 °F 30.25 in Calm     82% 0 in 0.00 W/m2
03:20 62.1 °F 56.55 °F 30.25 in Calm     82% 0 in 0.00 W/m2
03:25 62 °F 56.45 °F 30.25 in Calm     82% 0 in 0.00 W/m2
03:30 61.8 °F 56.59 °F 30.25 in Calm     83% 0 in 0.00 W/m2
03:35 61.7 °F 56.49 °F 30.25 in Calm     83% 0 in 0.00 W/m2
03:40 61.6 °F 56.39 °F 30.25 in Calm     83% 0 in 0.00 W/m2
03:45 61.5 °F 56.63 °F 30.26 in Calm     84% 0 in 0.00 W/m2
03:50 61.3 °F 56.43 °F 30.25 in Calm     84% 0 in 0.00 W/m2
03:55 61.2 °F 56.33 °F 30.26 in Calm     84% 0 in 0.00 W/m2
04:00 61.1 °F 56.56 °F 30.26 in Calm     85% 0 in 0.00 W/m2
04:05 61 °F 56.46 °F 30.26 in Calm     85% 0 in 0.00 W/m2
04:10 60.9 °F 56.37 °F 30.26 in Calm     85% 0 in 0.00 W/m2
04:15 60.8 °F 56.27 °F 30.26 in Calm     85% 0 in 0.00 W/m2
04:20 60.6 °F 56.4 °F 30.26 in Calm     86% 0 in 0.00 W/m2
04:25 60.6 °F 56.4 °F 30.26 in Calm     86% 0 in 0.00 W/m2
04:30 60.5 °F 56.62 °F 30.26 in Calm   2 mph 87% 0 in 0.00 W/m2
04:35 60.5 °F 56.62 °F 30.26 in Calm     87% 0 in 0.00 W/m2
04:40 60.5 °F 56.62 °F 30.26 in Calm     87% 0 in 0.00 W/m2
04:45 60.6 °F 57.03 °F 30.25 in Calm     88% 0 in 0.00 W/m2
04:50 60.6 °F 57.03 °F 30.26 in Calm     88% 0 in 0.00 W/m2
04:55 60.7 °F 57.13 °F 30.25 in Calm     88% 0 in 0.00 W/m2
05:00 60.7 °F 57.13 °F 30.25 in Calm     88% 0 in 0.00 W/m2
05:05 60.7 °F 57.13 °F 30.25 in Calm     88% 0 in 0.00 W/m2
05:10 60.7 °F 57.13 °F 30.26 in Calm     88% 0 in 0.00 W/m2
05:15 60.8 °F 57.23 °F 30.26 in Calm   1 mph 88% 0 in 0.00 W/m2
05:20 60.8 °F 57.23 °F 30.26 in Calm   1 mph 88% 0 in 0.00 W/m2
05:25 60.7 °F 57.13 °F 30.25 in Calm   1 mph 88% 0 in 0.00 W/m2
05:30 60.7 °F 57.13 °F 30.25 in Calm   1 mph 88% 0 in 0.00 W/m2
05:35 60.7 °F 57.13 °F 30.25 in Calm   3 mph 88% 0 in 0.00 W/m2
05:40 60.7 °F 57.13 °F 30.25 in Calm   3 mph 88% 0 in 0.00 W/m2
05:45 60.7 °F 57.13 °F 30.25 in Calm   3 mph 88% 0 in 0.00 W/m2
05:50 60.7 °F 57.13 °F 30.26 in Calm   3 mph 88% 0 in 0.00 W/m2
05:55 60.8 °F 57.23 °F 30.26 in Calm   3 mph 88% 0 in 0.00 W/m2
06:00 60.8 °F 57.23 °F 30.26 in Calm   4 mph 88% 0 in 0.00 W/m2
06:05 60.9 °F 57.33 °F 30.26 in Calm   2 mph 88% 0 in 0.00 W/m2
06:10 60.9 °F 57.33 °F 30.26 in Calm   2 mph 88% 0 in 0.00 W/m2
06:15 61 °F 57.43 °F 30.26 in Calm   2 mph 88% 0 in 0.00 W/m2
06:20 61 °F 57.43 °F 30.26 in Calm   2 mph 88% 0 in 5.00 W/m2
06:25 61.1 °F 57.52 °F 30.26 in Calm   5 mph 88% 0 in 9.00 W/m2
06:30 61.1 °F 57.52 °F 30.26 in Calm   5 mph 88% 0 in 14.00 W/m2
06:35 61.2 °F 57.31 °F 30.26 in Calm     87% 0 in 18.00 W/m2
06:40 61.3 °F 57.4 °F 30.26 in Calm     87% 0 in 25.00 W/m2
06:45 61.3 °F 57.72 °F 30.26 in Calm   2 mph 88% 0 in 26.00 W/m2
06:50 61.4 °F 57.5 °F 30.26 in Calm   2 mph 87% 0 in 35.00 W/m2
06:55 61.5 °F 57.6 °F 30.27 in Calm   2 mph 87% 0 in 74.00 W/m2
07:00 61.8 °F 57.9 °F 30.27 in Calm   2 mph 87% 0 in 83.00 W/m2
07:05 62.2 °F 58.29 °F 30.27 in Calm     87% 0 in 72.00 W/m2
07:10 62.7 °F 58.46 °F 30.27 in Calm   3 mph 86% 0 in 86.00 W/m2
07:15 63.2 °F 58.62 °F 30.27 in Calm   4 mph 85% 0 in 69.00 W/m2
07:20 63.6 °F 58.68 °F 30.27 in Calm   4 mph 84% 0 in 70.00 W/m2
07:25 63.9 °F 58.64 °F 30.28 in Calm   4 mph 83% 0 in 79.00 W/m2
07:30 64 °F 58.4 °F 30.27 in Calm   5 mph 82% 0 in 102.00 W/m2
07:35 64 °F 58.4 °F 30.28 in Calm   3 mph 82% 0 in 134.00 W/m2
07:40 64.1 °F 58.5 °F 30.28 in ENE 3 mph 5 mph 82% 0 in 132.00 W/m2
07:45 64.3 °F 58.7 °F 30.28 in ENE 2 mph 10 mph 82% 0 in 128.00 W/m2
07:50 64.4 °F 58.79 °F 30.28 in Calm   10 mph 82% 0 in 97.00 W/m2
07:55 64.5 °F 58.55 °F 30.28 in NE 1 mph 10 mph 81% 0 in 97.00 W/m2
08:00 64.5 °F 58.55 °F 30.28 in ENE 3 mph 10 mph 81% 0 in 91.00 W/m2
08:05 64.5 °F 58.89 °F 30.28 in Calm   12 mph 82% 0 in 81.00 W/m2
08:10 64.6 °F 58.99 °F 30.28 in Calm   12 mph 82% 0 in 76.00 W/m2
08:15 64.6 °F 58.65 °F 30.28 in ENE 2 mph 12 mph 81% 0 in 54.00 W/m2
08:20 64.6 °F 58.65 °F 30.28 in ENE 1 mph 12 mph 81% 0 in 46.00 W/m2
08:25 64.5 °F 58.89 °F 30.28 in Calm   12 mph 82% 0 in 51.00 W/m2
08:30 64.5 °F 58.89 °F 30.28 in ENE 3 mph 12 mph 82% 0 in 63.00 W/m2
08:35 64.6 °F 58.99 °F 30.28 in Calm   6 mph 82% 0 in 79.00 W/m2
08:40 64.8 °F 58.84 °F 30.28 in ENE 6 mph 9 mph 81% 0 in 86.00 W/m2
08:45 65 °F 58.69 °F 30.28 in ENE 1 mph 11 mph 80% 0 in 84.00 W/m2
08:50 65.4 °F 59.08 °F 30.28 in Calm   11 mph 80% 0 in 104.00 W/m2
08:55 65.7 °F 59.02 °F 30.29 in NE 1 mph 11 mph 79% 0 in 62.00 W/m2
09:00 66 °F 58.95 °F 30.29 in NE 2 mph 12 mph 78% 0 in 113.00 W/m2
09:05 66.2 °F 59.15 °F 30.29 in ENE 4 mph 10 mph 78% 0 in 91.00 W/m2
09:10 66.1 °F 58.69 °F 30.29 in East 4 mph 10 mph 77% 0 in 88.00 W/m2
09:15 66.1 °F 59.05 °F 30.29 in East 3 mph 10 mph 78% 0 in 111.00 W/m2
09:20 66.2 °F 59.15 °F 30.29 in Calm   11 mph 78% 0 in 95.00 W/m2
09:25 66.4 °F 59.34 °F 30.29 in Calm   11 mph 78% 0 in 123.00 W/m2
09:30 66.7 °F 59.63 °F 30.28 in Calm   11 mph 78% 0 in 120.00 W/m2
09:35 67 °F 59.56 °F 30.28 in Calm   9 mph 77% 0 in 118.00 W/m2
09:40 67.2 °F 59.39 °F 30.28 in ENE 7 mph 13 mph 76% 0 in 93.00 W/m2
09:45 67 °F 58.82 °F 30.28 in ENE 1 mph 13 mph 75% 0 in 149.00 W/m2
09:50 67 °F 58.82 °F 30.28 in SE 3 mph 13 mph 75% 0 in 91.00 W/m2
09:55 67.1 °F 58.92 °F 30.28 in East 3 mph 13 mph 75% 0 in 163.00 W/m2
10:00 67.4 °F 58.46 °F 30.28 in ENE 5 mph 13 mph 73% 0 in 197.00 W/m2
10:05 67.9 °F 59.32 °F 30.28 in Calm   9 mph 74% 0 in 102.00 W/m2
10:10 68.1 °F 59.13 °F 30.28 in NE 6 mph 13 mph 73% 0 in 60.00 W/m2
10:15 67.9 °F 57.37 °F 30.28 in NE 5 mph 15 mph 69% 0 in 246.00 W/m2
10:20 67.9 °F 57.37 °F 30.28 in ENE 1 mph 15 mph 69% 0 in 90.00 W/m2
10:25 68 °F 57.86 °F 30.27 in ENE 4 mph 15 mph 70% 0 in 84.00 W/m2
10:30 68.3 °F 57.75 °F 30.28 in Calm   15 mph 69% 0 in 104.00 W/m2
10:35 68.5 °F 57.53 °F 30.27 in ENE 2 mph 10 mph 68% 0 in 116.00 W/m2
10:40 68.7 °F 57.72 °F 30.27 in East 3 mph 10 mph 68% 0 in 130.00 W/m2
10:45 68.9 °F 57.5 °F 30.27 in ENE 4 mph 17 mph 67% 0 in 155.00 W/m2
10:50 69.3 °F 57.47 °F 30.28 in East 1 mph 17 mph 66% 0 in 156.00 W/m2
10:55 69.6 °F 56.9 °F 30.27 in ENE 2 mph 17 mph 64% 0 in 165.00 W/m2
11:00 69.6 °F 56.9 °F 30.27 in East 3 mph 17 mph 64% 0 in 95.00 W/m2
11:05 69.6 °F 56.9 °F 30.27 in East 4 mph 13 mph 64% 0 in 125.00 W/m2
11:10 69.9 °F 57.61 °F 30.27 in East 3 mph 13 mph 65% 0 in 199.00 W/m2
11:15 70.2 °F 57.03 °F 30.27 in North 4 mph 13 mph 63% 0 in 232.00 W/m2
11:20 70.3 °F 55.77 °F 30.28 in ESE 3 mph 13 mph 60% 0 in 148.00 W/m2
11:25 70.1 °F 55.59 °F 30.27 in NE 5 mph 13 mph 60% 0 in 86.00 W/m2
11:30 69.9 °F 55.4 °F 30.27 in East 6 mph 14 mph 60% 0 in 833.00 W/m2
11:35 70.1 °F 55.12 °F 30.27 in East 1 mph 10 mph 59% 0 in 297.00 W/m2
11:40 70.5 °F 55.96 °F 30.27 in East 2 mph 10 mph 60% 0 in 179.00 W/m2
11:45 70.9 °F 56.34 °F 30.27 in NE 4 mph 11 mph 60% 0 in 244.00 W/m2
11:50 71.3 °F 57.17 °F 30.27 in ENE 3 mph 11 mph 61% 0 in 591.00 W/m2
11:55 71.6 °F 57 °F 30.27 in NE 10 mph 11 mph 60% 0 in 311.00 W/m2
12:00 71.4 °F 56.34 °F 30.27 in Calm     59% 0 in 202.00 W/m2
12:05 71.3 °F 55.78 °F 30.27 in ENE 6 mph 12 mph 58% 0 in 944.00 W/m2
12:10 71.5 °F 55.96 °F 30.27 in NE 2 mph 13 mph 58% 0 in 158.00 W/m2
12:15 71.6 °F 56.06 °F 30.27 in Calm   13 mph 58% 0 in 185.00 W/m2
12:20 71.5 °F 55.96 °F 30.27 in Calm   13 mph 58% 0 in 149.00 W/m2
12:25 71.6 °F 56.53 °F 30.27 in Calm   13 mph 59% 0 in 262.00 W/m2
12:30 71.7 °F 55.67 °F 30.26 in ENE 1 mph 13 mph 57% 0 in 262.00 W/m2
12:35 71.7 °F 55.67 °F 30.26 in East 3 mph 9 mph 57% 0 in 297.00 W/m2
12:40 71.7 °F 55.18 °F 30.26 in ENE 1 mph 10 mph 56% 0 in 853.00 W/m2
12:45 72 °F 55.46 °F 30.26 in NE 2 mph 10 mph 56% 0 in 668.00 W/m2
12:50 72.1 °F 55.56 °F 30.26 in East 2 mph 10 mph 56% 0 in 914.00 W/m2
12:55 72.1 °F 55.56 °F 30.26 in NE 1 mph 10 mph 56% 0 in 116.00 W/m2
13:00 71.9 °F 54.87 °F 30.26 in East 5 mph 11 mph 55% 0 in 197.00 W/m2
13:05 71.7 °F 54.69 °F 30.26 in ENE 5 mph 10 mph 55% 0 in 241.00 W/m2
13:10 71.9 °F 55.86 °F 30.26 in NE 2 mph 10 mph 57% 0 in 489.00 W/m2
13:15 72.2 °F 55.15 °F 30.26 in ENE 3 mph 10 mph 55% 0 in 283.00 W/m2
13:20 72.4 °F 54.84 °F 30.25 in Calm   11 mph 54% 0 in 406.00 W/m2
13:25 72.7 °F 55.62 °F 30.25 in ENE 3 mph 14 mph 55% 0 in 415.00 W/m2
13:30 72.8 °F 54.69 °F 30.25 in NE 1 mph 14 mph 53% 0 in 246.00 W/m2
13:35 72.6 °F 55.02 °F 30.25 in Calm   13 mph 54% 0 in 232.00 W/m2
13:40 72.5 °F 54.42 °F 30.25 in Calm   13 mph 53% 0 in 186.00 W/m2
13:45 72.2 °F 55.15 °F 30.25 in NE 4 mph 13 mph 55% 0 in 195.00 W/m2
13:50 72 °F 55.46 °F 30.25 in NE 1 mph 13 mph 56% 0 in 213.00 W/m2
13:55 71.9 °F 55.86 °F 30.25 in ENE 3 mph 13 mph 57% 0 in 213.00 W/m2
14:00 71.8 °F 55.76 °F 30.25 in ENE 1 mph 13 mph 57% 0 in 190.00 W/m2
14:05 71.8 °F 56.72 °F 30.25 in Calm   6 mph 59% 0 in 148.00 W/m2
14:10 71.7 °F 57.09 °F 30.25 in NNE 4 mph 9 mph 60% 0 in 118.00 W/m2
Grace C. Lehan Memorial Weather Station
Compliments of Weather Underground - 4 mb